Weather History for KW29 - July, 2013

Change the Weather History Date:

Wednesday, July 3, 2013

  Actual Average (KBWI) Record (KBWI)
Temperature  
Mean Temperature 80 °F 77 °F  
Max Temperature 86 °F 87 °F 104 °F (1898)
Min Temperature 73 °F 66 °F 50 °F (2001)
Degree Days  
Heating Degree Days 0 0  
Month to date heating degree days 0  
Since 1 June heating degree days 15  
Since 1 July heating degree days 0  
Cooling Degree Days 14 12  
Month to date cooling degree days 34  
Year to date cooling degree days 356  
Since 1 June cooling degree days 272  
Growing Degree Days 30 (Base 50)    
Moisture  
Dew Point 73 °F    
Average Humidity 83    
Maximum Humidity 94    
Minimum Humidity 62    
Precipitation  
Precipitation 0.00 in 0.12 in 2.33 in (1978)
Month to date precipitation 0.37  
Year to date precipitation 20.86  
Snow  
Snow 0.00 in 0.00 in - ()
Month to date snowfall 0.0  
Since 1 July snowfall 0.0  
Snow Depth -    
Sea Level Pressure  
Sea Level Pressure 30.21 in    
Wind  
Wind Speed 7 mph (South)    
Max Wind Speed 14 mph    
Max Gust Speed 18 mph    
Visibility 10 miles    
Events Rain , Thunderstorm    
T = Trace of Precipitation, MM = Missing Value Source: NWS Daily Summary

Daily Weather History Graph

Daily Weather History Graph

Search for Another Location

Airport or City:

Trip Planner

Search our weather history database for the weather conditions in past years. The results will help you decide how hot, cold, wet, or windy it might be!

Date:

Astronomy

Jul. 03, 2013 Rise Set
Actual Time 5:44 AM EDT 8:34 PM EDT
Civil Twilight 5:12 AM EDT 9:06 PM EDT
Nautical Twilight 4:32 AM EDT 9:46 PM EDT
Astronomical Twilight 3:46 AM EDT 10:32 PM EDT
Moon 2:20 AM EDT 4:43 PM EDT
Length of Visible Light 15h 53m
Length of Day
14h 49m
Waning Crescent, 18% of the Moon is Illuminated
Jul 3
Waning Crescent
Jul 8
New
Jul 15
First Quarter
Jul 22
Full
Jul 29
Last Quarter

Hourly Weather History & Observations

Time (EDT) Temp. Heat Index Dew Point Humidity Pressure Visibility Wind Dir Wind Speed Gust Speed Precip Events Conditions
12:10 AM 75.2 °F - 69.8 °F 83% 30.19 in 10.0 mi South 6.9 mph - N/A   Clear
12:30 AM 75.2 °F - 69.8 °F 83% 30.19 in 10.0 mi South 6.9 mph - N/A   Clear
12:50 AM 75.2 °F - 69.8 °F 83% 30.19 in 10.0 mi South 6.9 mph - N/A   Clear
1:10 AM 75.2 °F - 69.8 °F 83% 30.20 in 10.0 mi South 6.9 mph - N/A   Clear
1:30 AM 75.2 °F - 71.6 °F 89% 30.20 in 10.0 mi South 5.8 mph - N/A   Clear
1:50 AM 73.4 °F - 71.6 °F 94% 30.20 in 10.0 mi South 6.9 mph - N/A   Clear
2:10 AM 75.2 °F - 71.6 °F 89% 30.20 in 10.0 mi South 9.2 mph - N/A   Clear
2:30 AM 73.4 °F - 71.6 °F 94% 30.19 in 10.0 mi South 5.8 mph - N/A   Clear
2:50 AM 73.4 °F - 71.6 °F 94% 30.19 in 10.0 mi South 4.6 mph - N/A   Clear
3:10 AM 73.4 °F - 71.6 °F 94% 30.18 in 10.0 mi South 4.6 mph - N/A   Clear
3:30 AM 73.4 °F - 71.6 °F 94% 30.19 in 10.0 mi South 4.6 mph - N/A   Scattered Clouds
3:50 AM 73.4 °F - 71.6 °F 94% 30.19 in 10.0 mi South 4.6 mph - N/A   Scattered Clouds
4:10 AM 73.4 °F - 71.6 °F 94% 30.19 in 10.0 mi South 5.8 mph - N/A   Clear
4:30 AM 75.2 °F - 71.6 °F 89% 30.19 in 10.0 mi South 4.6 mph - N/A   Clear
4:50 AM 73.4 °F - 71.6 °F 94% 30.19 in 10.0 mi Calm Calm - N/A   Clear
5:10 AM 73.4 °F - 71.6 °F 94% 30.20 in 10.0 mi South 3.5 mph - N/A   Clear
5:30 AM 73.4 °F - 71.6 °F 94% 30.20 in 10.0 mi Calm Calm - N/A   Clear
5:51 AM 73.4 °F - 71.6 °F 94% 30.20 in 10.0 mi Calm Calm - N/A   Mostly Cloudy
6:11 AM 73.4 °F - 71.6 °F 94% 30.20 in 10.0 mi South 4.6 mph - N/A   Overcast
6:31 AM 75.2 °F - 73.4 °F 94% 30.20 in 10.0 mi South 4.6 mph - N/A   Overcast
6:51 AM 75.2 °F - 73.4 °F 94% 30.21 in 10.0 mi South 6.9 mph - N/A   Overcast
7:11 AM 77.0 °F - 73.4 °F 89% 30.22 in 10.0 mi South 6.9 mph - N/A   Overcast
7:31 AM 77.0 °F - 73.4 °F 89% 30.23 in 10.0 mi SSW 6.9 mph - N/A   Overcast
7:51 AM 77.0 °F - 73.4 °F 89% 30.23 in 10.0 mi SSW 9.2 mph - N/A   Overcast
8:11 AM 77.0 °F - 73.4 °F 89% 30.23 in 10.0 mi South 6.9 mph - N/A   Mostly Cloudy
8:31 AM 77.0 °F - 73.4 °F 89% 30.23 in 10.0 mi South 8.1 mph - N/A   Mostly Cloudy
8:51 AM 77.0 °F - 73.4 °F 89% 30.23 in 10.0 mi SSW 8.1 mph 16.1 mph N/A   Mostly Cloudy
9:11 AM 77.0 °F - 71.6 °F 83% 30.23 in 10.0 mi SSW 6.9 mph - N/A   Mostly Cloudy
9:31 AM 78.8 °F - 71.6 °F 78% 30.24 in 10.0 mi SSW 6.9 mph - N/A   Scattered Clouds
9:51 AM 78.8 °F - 71.6 °F 78% 30.24 in 10.0 mi SSW 6.9 mph - N/A   Scattered Clouds
10:11 AM 78.8 °F - 71.6 °F 78% 30.25 in 10.0 mi SSW 6.9 mph - N/A   Scattered Clouds
10:31 AM 80.6 °F 84.6 °F 71.6 °F 74% 30.25 in 10.0 mi SSW 9.2 mph 16.1 mph N/A   Scattered Clouds
10:51 AM 78.8 °F - 75.2 °F 89% 30.24 in 7.0 mi South 10.4 mph - N/A Rain Light Rain
11:11 AM 80.6 °F 85.4 °F 73.4 °F 79% 30.24 in 10.0 mi SSE 11.5 mph - N/A   Mostly Cloudy
11:31 AM 78.8 °F - 77.0 °F 94% 30.24 in 10.0 mi SSW 8.1 mph 16.1 mph N/A Rain Light Rain
11:51 AM 78.8 °F - 75.2 °F 89% 30.24 in 10.0 mi South 9.2 mph - N/A   Mostly Cloudy
12:11 PM 80.6 °F 85.4 °F 73.4 °F 79% 30.23 in 10.0 mi SSE 10.4 mph - N/A   Mostly Cloudy
12:31 PM 80.6 °F 85.4 °F 73.4 °F 79% 30.23 in 10.0 mi South 10.4 mph - N/A   Mostly Cloudy
12:51 PM 82.4 °F 88.2 °F 73.4 °F 74% 30.23 in 10.0 mi South 10.4 mph - N/A   Scattered Clouds
1:11 PM 82.4 °F 87.2 °F 71.6 °F 70% 30.23 in 10.0 mi SSE 12.7 mph 18.4 mph N/A   Scattered Clouds
1:31 PM 84.2 °F 89.6 °F 71.6 °F 66% 30.22 in 10.0 mi SSE 12.7 mph - N/A   Scattered Clouds
1:51 PM 84.2 °F 89.6 °F 71.6 °F 66% 30.21 in 10.0 mi SSE 11.5 mph - N/A   Scattered Clouds
2:12 PM 84.2 °F 89.6 °F 71.6 °F 66% 30.21 in 10.0 mi South 13.8 mph - N/A   Scattered Clouds
2:32 PM 84.2 °F 89.6 °F 71.6 °F 66% 30.20 in 10.0 mi South 9.2 mph - N/A   Scattered Clouds
2:52 PM 84.2 °F 89.6 °F 71.6 °F 66% 30.20 in 10.0 mi SSE 9.2 mph - N/A   Scattered Clouds
3:12 PM 86.0 °F 91.8 °F 71.6 °F 62% 30.20 in 10.0 mi South 11.5 mph - N/A   Scattered Clouds
3:32 PM 86.0 °F 91.8 °F 71.6 °F 62% 30.20 in 10.0 mi South 9.2 mph - N/A   Clear
3:52 PM 84.2 °F 89.6 °F 71.6 °F 66% 30.20 in 10.0 mi South 10.4 mph - N/A   Scattered Clouds
4:12 PM 82.4 °F 88.2 °F 73.4 °F 74% 30.20 in 10.0 mi South 9.2 mph - N/A   Scattered Clouds
4:32 PM 82.4 °F 88.2 °F 73.4 °F 74% 30.20 in 10.0 mi South 8.1 mph - N/A   Scattered Clouds
4:52 PM 82.4 °F 88.2 °F 73.4 °F 74% 30.19 in 10.0 mi South 8.1 mph - N/A   Scattered Clouds
5:12 PM 82.4 °F 88.2 °F 73.4 °F 74% 30.20 in 10.0 mi South 9.2 mph - N/A   Scattered Clouds
5:32 PM 80.6 °F 85.4 °F 73.4 °F 79% 30.19 in 10.0 mi South 6.9 mph - N/A   Scattered Clouds
5:52 PM 82.4 °F 88.2 °F 73.4 °F 74% 30.19 in 10.0 mi South 8.1 mph - N/A   Clear
6:12 PM 80.6 °F 85.4 °F 73.4 °F 79% 30.20 in 10.0 mi South 9.2 mph - N/A   Clear
6:32 PM 80.6 °F 85.4 °F 73.4 °F 79% 30.20 in 10.0 mi South 10.4 mph - N/A   Clear
6:52 PM 80.6 °F 85.4 °F 73.4 °F 79% 30.21 in 10.0 mi South 11.5 mph - N/A Thunderstorm Clear
7:12 PM 80.6 °F 85.4 °F 73.4 °F 79% 30.21 in 10.0 mi South 10.4 mph 17.3 mph N/A Thunderstorm Scattered Clouds
7:32 PM 80.6 °F 84.6 °F 71.6 °F 74% 30.20 in 10.0 mi South 8.1 mph 16.1 mph N/A   Scattered Clouds
7:52 PM 78.8 °F - 73.4 °F 83% 30.20 in 10.0 mi South 6.9 mph - N/A   Light Drizzle
8:12 PM 78.8 °F - 75.2 °F 89% 30.21 in 10.0 mi South 6.9 mph - N/A Rain Light Rain
8:32 PM 78.8 °F - 77.0 °F 94% 30.21 in 10.0 mi South 3.5 mph - N/A   Mostly Cloudy
8:52 PM 77.0 °F - 75.2 °F 94% 30.21 in 10.0 mi South 3.5 mph - N/A   Scattered Clouds
9:12 PM 77.0 °F - 75.2 °F 94% 30.21 in 10.0 mi Calm Calm - N/A   Clear
9:32 PM 77.0 °F - 73.4 °F 89% 30.23 in 10.0 mi South 4.6 mph - N/A   Clear
9:52 PM 77.0 °F - 73.4 °F 89% 30.23 in 10.0 mi South 5.8 mph - N/A   Clear
10:12 PM 77.0 °F - 73.4 °F 89% 30.23 in 10.0 mi South 5.8 mph - N/A   Clear
10:32 PM 77.0 °F - 71.6 °F 83% 30.24 in 10.0 mi South 4.6 mph - N/A   Clear
10:52 PM 77.0 °F - 71.6 °F 83% 30.24 in 10.0 mi SSE 4.6 mph - N/A   Clear
11:13 PM 77.0 °F - 71.6 °F 83% 30.25 in 10.0 mi South 4.6 mph - N/A   Clear
11:33 PM 75.2 °F - 71.6 °F 89% 30.24 in 10.0 mi South 5.8 mph - N/A   Clear
11:53 PM 77.0 °F - 71.6 °F 83% 30.25 in 10.0 mi South 5.8 mph - N/A   Clear